TimeCST,TemperatureF,Dew PointF,Humidity,Sea Level PressureIn,VisibilityMPH,Wind Direction,Wind SpeedMPH,Gust SpeedMPH,PrecipitationIn,Events,Conditions,WindDirDegrees,DateUTC
12:52 AM,32.0,30.0,92,29.67,6.0,South,6.9,-,N/A,,Overcast,170,2013-03-04 06:52:00
1:52 AM,32.0,30.0,92,29.65,4.0,SE,5.8,-,0.00,,Overcast,140,2013-03-04 07:52:00
2:25 AM,32.0,30.2,93,29.62,5.0,South,4.6,-,N/A,,Overcast,190,2013-03-04 08:25:00
2:52 AM,32.0,28.9,88,29.67,4.0,South,3.5,-,N/A,,Overcast,190,2013-03-04 08:52:00
3:06 AM,32.0,28.4,87,29.62,1.8,South,3.5,-,0.01,Snow,Light Snow,190,2013-03-04 09:06:00
3:25 AM,32.0,30.2,93,29.63,2.0,SSW,3.5,-,0.01,Snow,Light Snow,200,2013-03-04 09:25:00
3:32 AM,30.2,30.2,100,29.63,0.8,SSW,3.5,-,0.01,Snow,Light Snow,200,2013-03-04 09:32:00
3:40 AM,30.2,30.2,100,29.63,0.5,Calm,Calm,-,0.03,Fog-Snow,Snow,0,2013-03-04 09:40:00
3:52 AM,30.9,28.9,92,29.68,0.8,Calm,Calm,-,0.05,Snow,Light Snow,0,2013-03-04 09:52:00
4:17 AM,32.0,30.2,93,29.63,1.0,Calm,Calm,-,0.01,Snow,Light Snow,0,2013-03-04 10:17:00
4:36 AM,32.0,30.2,93,29.63,2.5,WNW,5.8,-,0.01,,Overcast,300,2013-03-04 10:36:00
4:52 AM,32.0,30.0,92,29.68,4.0,NW,8.1,-,0.01,,Overcast,320,2013-03-04 10:52:00
4:59 AM,32.0,30.2,93,29.63,4.0,NW,6.9,-,N/A,,Overcast,320,2013-03-04 10:59:00
5:30 AM,30.2,30.2,100,29.64,3.0,NW,4.6,-,N/A,,Mostly Cloudy,320,2013-03-04 11:30:00
5:37 AM,30.2,28.4,93,29.64,2.5,NNW,6.9,-,N/A,,Mostly Cloudy,330,2013-03-04 11:37:00
5:43 AM,30.2,28.4,93,29.65,3.0,WNW,3.5,-,N/A,,Mostly Cloudy,300,2013-03-04 11:43:00
5:49 AM,28.4,28.4,100,29.66,1.8,Calm,Calm,-,N/A,,Mostly Cloudy,0,2013-03-04 11:49:00
5:52 AM,27.0,27.0,100,29.71,0.8,Calm,Calm,-,N/A,,Mostly Cloudy,0,2013-03-04 11:52:00
6:06 AM,26.6,26.6,100,29.66,0.2,NW,4.6,-,N/A,Fog,Light Freezing Fog,310,2013-03-04 12:06:00
6:14 AM,28.4,26.6,93,29.66,3.0,WNW,4.6,-,N/A,,Partly Cloudy,300,2013-03-04 12:14:00
6:52 AM,28.0,26.1,92,29.72,10.0,NW,8.1,-,N/A,,Scattered Clouds,310,2013-03-04 12:52:00
7:52 AM,26.1,21.0,81,29.74,10.0,NW,5.8,-,N/A,,Clear,320,2013-03-04 13:52:00
8:52 AM,30.0,21.9,72,29.75,10.0,WNW,12.7,-,N/A,,Clear,290,2013-03-04 14:52:00
9:52 AM,30.9,21.9,69,29.75,10.0,West,15.0,20.7,N/A,,Clear,260,2013-03-04 15:52:00
10:52 AM,33.1,25.0,72,29.75,10.0,West,19.6,27.6,N/A,,Mostly Cloudy,270,2013-03-04 16:52:00
11:52 AM,33.1,24.1,70,29.76,10.0,West,19.6,28.8,N/A,,Overcast,280,2013-03-04 17:52:00
12:20 PM,33.8,21.2,60,29.71,10.0,West,18.4,29.9,N/A,,Scattered Clouds,260,2013-03-04 18:20:00
12:52 PM,34.0,21.9,61,29.78,10.0,West,21.9,29.9,N/A,,Scattered Clouds,270,2013-03-04 18:52:00
1:52 PM,33.1,19.0,56,29.77,10.0,West,24.2,32.2,N/A,,Overcast,260,2013-03-04 19:52:00
2:52 PM,30.9,17.1,57,29.75,10.0,West,21.9,28.8,N/A,,Overcast,260,2013-03-04 20:52:00
3:52 PM,30.0,18.0,61,29.78,10.0,West,16.1,20.7,N/A,,Overcast,270,2013-03-04 21:52:00
4:25 PM,28.4,19.4,69,29.73,2.5,WNW,19.6,25.3,0.00,Snow,Light Snow,290,2013-03-04 22:25:00
4:34 PM,26.6,19.4,74,29.74,1.2,NW,23.0,28.8,0.00,Snow,Light Snow,310,2013-03-04 22:34:00
4:52 PM,26.1,21.0,81,29.81,1.2,NW,20.7,27.6,0.00,Snow,Light Snow,310,2013-03-04 22:52:00
5:22 PM,26.6,19.4,74,29.77,3.0,NW,21.9,33.4,0.00,Snow,Light Snow,320,2013-03-04 23:22:00
5:52 PM,25.0,17.1,72,29.86,10.0,NW,24.2,33.4,0.00,,Overcast,320,2013-03-04 23:52:00
6:52 PM,24.1,18.0,77,29.90,6.0,NW,25.3,35.7,0.00,Snow,Light Snow,310,2013-03-05 00:52:00
7:49 PM,23.0,17.6,80,29.86,2.0,NW,21.9,29.9,0.00,Snow,Light Snow,310,2013-03-05 01:49:00
7:52 PM,23.0,18.0,81,29.93,1.8,NW,21.9,29.9,0.00,Snow,Light Snow,310,2013-03-05 01:52:00
8:20 PM,21.2,17.6,86,29.86,2.0,NW,24.2,34.5,0.00,Snow,Light Snow,320,2013-03-05 02:20:00
8:28 PM,21.2,17.6,86,29.86,1.8,NW,26.5,36.8,0.00,Snow,Light Snow,310,2013-03-05 02:28:00
8:35 PM,21.2,17.6,86,29.87,3.0,NW,19.6,34.5,0.00,Snow,Light Snow,310,2013-03-05 02:35:00
8:52 PM,23.0,18.0,81,29.94,7.0,NW,27.6,39.1,0.00,Snow,Light Snow,310,2013-03-05 02:52:00
9:52 PM,21.9,18.0,85,29.96,3.0,NNW,29.9,41.4,0.00,Snow,Light Snow,330,2013-03-05 03:52:00
9:58 PM,21.2,17.6,86,29.90,2.5,NNW,28.8,41.4,0.00,Snow,Light Snow,330,2013-03-05 03:58:00
10:29 PM,21.2,17.6,86,29.92,3.0,NNW,25.3,40.3,0.00,Snow,Light Snow,330,2013-03-05 04:29:00
10:52 PM,21.9,18.0,85,30.00,4.0,NNW,29.9,41.4,0.00,Snow,Light Snow,340,2013-03-05 04:52:00
11:16 PM,21.2,17.6,86,29.95,3.0,NNW,29.9,39.1,0.00,Snow,Light Snow,330,2013-03-05 05:16:00
11:52 PM,21.9,17.1,82,30.03,4.0,NNW,32.2,41.4,0.00,Snow,Light Snow,330,2013-03-05 05:52:00